STARS-ME (43640 NORAD) Tracking and Keplerian Element Data

This shows tracking and keplerian element data for the satellite.

Feedback or suggestion? Click here.




ElementValue
Catalog43640
NameSTARS-ME
Epoch Orbit560
Epoch Day315.64656556
Epoch Year2018
RAAN3.6444
Inclination51.6403
Eccentricity0.0006166
Argument of Perigee2.8966
Mean Anonmoly357.206
Mean Motion15.55041165
Decay Rate7.254E-05
L11 43640U 98067PQ 18315.64656556 .00007254 00000-0 11293-3 0 9995
L22 43640 51.6403 3.6444 0006166 2.8966 357.2060 15.55041165 5606

Live tracking and technical data element details for STARS-ME (NORAD 43640). STARS-ME can be tracked NOW for your location showing map with azimuth and elevation plus other details from your city location.

Track the satellite on the map from your city or location and see movement details for azimuth, elevation, latitude, longitude, range, height, and movement on the map or in text.







IsCatalogInMostPopularTable: catalog: 43640, numindb: 24
Update: records affected: 1



GetName: 43640 STARS-ME

Hit Count: updated at: Tue, 13 Nov 2018 07:09:02 GMT